Hourly Data Report for July 02, 2017

QUALICUM BEACH AIRPORT
BRITISH COLUMBIA

49°20'14.000" N
124°23'38.000" W
58.20 m
1026562
71766
VOQ

Download Data

Hourly Data (July 2017)
Hourly Data Report for July 2, 2017
TIME
LST
Temp Definition
°C
Dew Point Definition
°C
Rel Hum Definition
%
Precip. Amount Definition
mm

Wind Dir Definition
10's deg

Wind Spd Definition
km/h
Visibility Definition
km
Stn Press Definition
kPa
Hmdx Definition


Wind Chill Definition


Weather Definition


00:00 14.8 13.9 94 0.0 0 1   100.93     LegendNANA
01:00 14.1 13.4 95 0.0 0 1   100.94     LegendNANA
02:00 13.1 12.3 95 0.0 0 1   100.94     LegendNANA
03:00 12.7 11.7 94 0.0 24 1   100.96     LegendNANA
04:00 13.3 12.2 93 0.0 27 3   100.98     LegendNANA
05:00 13.8 12.4 91 0.0 0 1   100.98     LegendNANA
06:00 15.4 12.6 83 0.0 31 5   100.99     LegendNANA
07:00 17.0 13.2 78 0.0 31 6   101.02     LegendNANA
08:00 17.9 13.3 74 0.0 33 3   101.04     LegendNANA
09:00 17.5 13.9 79 0.0 9 10   101.03     LegendNANA
10:00 18.7 13.8 73 0.0 7 8   101.03     LegendNANA
11:00 19.5 13.9 70 0.0 10 10   101.02     LegendNANA
12:00 20.0 12.8 63 0.0 9 11   101.00     LegendNANA
13:00 21.4 12.0 55 0.0 10 13   100.97     LegendNANA
14:00 21.3 11.3 53 0.0 8 10   100.97     LegendNANA
15:00 21.9 12.0 53 0.0 10 10   100.95     LegendNANA
16:00 22.0 12.5 55 0.0 8 10   100.92 25   LegendNANA
17:00 20.8 12.9 60 0.0 9 11   100.90     LegendNANA
18:00 21.2 13.1 60 0.0 7 4   100.89     LegendNANA
19:00 21.7 14.5 63 0.0 5 4   100.90 25   LegendNANA
20:00 19.1 14.2 74 0.0 22 2   100.91     LegendNANA
21:00 19.2 11.0 59 0.0 29 12   100.98     LegendNANA
22:00 17.3 12.0 71 0.0 32 16   101.06     LegendNANA
23:00 16.2 11.5 73 0.0 32 14   101.10     LegendNANA

Notes on Data Quality.

Legend

  • E = Estimated
  • M = Missing
  • NA = Not Available*
  • [empty] = Indicates an unobserved value
Date modified: